Weather History for Fort Sill, OK

Change the Weather History Date:

Tuesday, January 29, 2013

  Actual Average Record
Temperature  
Mean Temperature 55 °F -  
Max Temperature 67 °F 51 °F 74 °F (2011)
Min Temperature 41 °F 29 °F 5 °F (1966)
Degree Days  
Heating Degree Days 10    
Growing Degree Days 5 (Base 50)    
Moisture  
Dew Point 55 °F    
Average Humidity 81    
Maximum Humidity 96    
Minimum Humidity 35    
Precipitation  
Precipitation 0.39 in - - ()
Sea Level Pressure  
Sea Level Pressure 29.57 in    
Wind  
Wind Speed 12 mph (SW)    
Max Wind Speed 26 mph    
Max Gust Speed 38 mph    
Visibility 8 miles    
Events Rain , Thunderstorm    
Averages and records for this station are not official NWS values.
T = Trace of Precipitation, MM = Missing Value Source: NWS Daily Summary

Daily Weather History Graph

Daily Weather History Graph

Search for Another Location

Airport:

Trip Planner

Search our weather history database for the weather conditions in past years. The results will help you decide how hot, cold, wet, or windy it might be!

Date:

Astronomy

Jan. 29, 2013 Rise Set
Actual Time 7:33 AM CST 6:00 PM CST
Civil Twilight 7:07 AM CST 6:26 PM CST
Nautical Twilight 6:36 AM CST 6:57 PM CST
Astronomical Twilight 6:07 AM CST 7:27 PM CST
Moon 8:48 PM CST (1/29) 8:39 AM CST (1/29)
Length of Visible Light 11h 19m
Length of Day
10h 26m
Waning Gibbous, 93% of the Moon is Illuminated
Jan 29
Waning Gibbous
Feb 3
Last Quarter
Feb 10
New
Feb 17
First Quarter
Feb 25
Full

Hourly Weather History & Observations

Time (CST) Temp. Windchill Dew Point Humidity Pressure Visibility Wind Dir Wind Speed Gust Speed Precip Events Conditions
12:55 AM 66.4 °F - 60.4 °F 81% 29.70 in 10.0 mi South 13.8 mph - N/A   Scattered Clouds
1:55 AM 65.3 °F - 60.8 °F 85% 29.68 in 10.0 mi South 11.5 mph - N/A   Partly Cloudy
2:24 AM 64.4 °F - 60.8 °F 88% 29.68 in 10.0 mi South 10.4 mph - N/A   Mostly Cloudy
2:55 AM 65.3 °F - 61.5 °F 88% 29.67 in 10.0 mi South 11.5 mph - N/A   Overcast
3:55 AM 65.3 °F - 62.1 °F 89% 29.65 in 10.0 mi South 13.8 mph - N/A   Overcast
4:27 AM 64.4 °F - 62.6 °F 94% 29.62 in 10.0 mi South 15.0 mph - N/A   Overcast
4:55 AM 65.3 °F - 62.2 °F 90% 29.62 in 10.0 mi South 12.7 mph - N/A   Overcast
5:16 AM 66.2 °F - 62.6 °F 88% 29.61 in 10.0 mi South 13.8 mph - N/A   Overcast
5:41 AM 66.2 °F - 62.6 °F 88% 29.60 in 10.0 mi South 15.0 mph 20.7 mph N/A   Overcast
5:55 AM 65.7 °F - 62.6 °F 90% 29.60 in 10.0 mi South 12.7 mph - N/A   Overcast
6:04 AM 66.2 °F - 62.6 °F 88% 29.60 in 10.0 mi South 10.4 mph - N/A   Overcast
6:18 AM 66.2 °F - 62.6 °F 88% 29.60 in 10.0 mi South 11.5 mph - N/A   Overcast
6:38 AM 66.2 °F - 62.6 °F 88% 29.60 in 10.0 mi South 13.8 mph - N/A   Overcast
6:43 AM 66.2 °F - 62.6 °F 88% 29.59 in 10.0 mi South 13.8 mph - N/A   Overcast
6:55 AM 65.8 °F - 63.0 °F 90% 29.59 in 10.0 mi SSW 11.5 mph - N/A   Overcast
7:14 AM 66.2 °F - 62.6 °F 88% 29.58 in 10.0 mi South 15.0 mph 19.6 mph N/A   Overcast
7:17 AM 66.2 °F - 62.6 °F 88% 29.58 in 10.0 mi South 15.0 mph - N/A   Overcast
7:22 AM 66.2 °F - 62.6 °F 88% 29.58 in 10.0 mi South 18.4 mph - N/A   Overcast
7:44 AM 66.2 °F - 62.6 °F 88% 29.57 in 10.0 mi South 13.8 mph - N/A   Mostly Cloudy
7:55 AM 66.2 °F - 62.6 °F 88% 29.56 in 10.0 mi South 11.5 mph - N/A   Overcast
7:57 AM 66.2 °F - 62.6 °F 88% 29.56 in 10.0 mi South 8.1 mph - N/A   Overcast
8:02 AM 66.2 °F - 62.6 °F 88% 29.56 in 8.0 mi SW 8.1 mph - N/A Rain Light Rain
8:03 AM 66.2 °F - 62.6 °F 88% 29.56 in 7.0 mi SW 9.2 mph - N/A Rain Light Rain
8:04 AM 66.2 °F - 62.6 °F 88% 29.55 in 6.0 mi WSW 8.1 mph - N/A Rain , Thunderstorm Light Thunderstorms and Rain
8:05 AM 66.2 °F - 62.6 °F 88% 29.55 in 6.0 mi WSW 8.1 mph - N/A Rain , Thunderstorm Light Thunderstorms and Rain
8:09 AM 66.2 °F - 62.6 °F 88% 29.55 in 5.0 mi SW 10.4 mph - N/A Rain , Thunderstorm Light Thunderstorms and Rain
8:10 AM 66.2 °F - 62.6 °F 88% 29.55 in 5.0 mi SW 12.7 mph 19.6 mph N/A Rain , Thunderstorm Light Thunderstorms and Rain
8:16 AM 64.4 °F - 60.8 °F 88% 29.56 in 2.5 mi South 24.2 mph 29.9 mph N/A Rain , Thunderstorm Heavy Thunderstorms and Rain
8:18 AM 64.4 °F - 60.8 °F 88% 29.55 in 2.0 mi South 24.2 mph 32.2 mph N/A Rain , Thunderstorm Heavy Thunderstorms and Rain
8:19 AM 64.4 °F - 60.8 °F 88% 29.55 in 1.8 mi South 25.3 mph 32.2 mph N/A Rain , Thunderstorm Heavy Thunderstorms and Rain
8:25 AM 62.6 °F - 59.0 °F 88% 29.56 in 1.8 mi SSW 13.8 mph 32.2 mph N/A Rain , Thunderstorm Heavy Thunderstorms and Rain
8:27 AM 62.6 °F - 59.0 °F 88% 29.56 in 2.0 mi SSW 15.0 mph 32.2 mph N/A Rain , Thunderstorm Heavy Thunderstorms and Rain
8:30 AM 62.6 °F - 59.0 °F 88% 29.57 in 2.0 mi SW 16.1 mph - N/A Rain , Thunderstorm Heavy Thunderstorms and Rain
8:31 AM 62.6 °F - 59.0 °F 88% 29.57 in 2.5 mi SW 16.1 mph - N/A Rain , Thunderstorm Heavy Thunderstorms and Rain
8:32 AM 62.6 °F - 59.0 °F 88% 29.57 in 2.5 mi SW 13.8 mph - N/A Rain , Thunderstorm Thunderstorms and Rain
8:35 AM 60.8 °F - 59.0 °F 94% 29.58 in 2.5 mi SW 12.7 mph - N/A Rain , Thunderstorm Heavy Thunderstorms and Rain
8:44 AM 60.8 °F - 59.0 °F 94% 29.58 in 3.0 mi SW 9.2 mph - N/A Rain , Thunderstorm Thunderstorms and Rain
8:45 AM 60.8 °F - 59.0 °F 94% 29.58 in 3.0 mi SW 8.1 mph - N/A Rain , Thunderstorm Rain
8:46 AM 60.8 °F - 59.0 °F 94% 29.58 in 3.0 mi WSW 8.1 mph - N/A Rain , Thunderstorm Thunderstorms and Rain
8:48 AM 60.8 °F - 59.0 °F 94% 29.57 in 4.0 mi SW 8.1 mph - N/A Rain , Thunderstorm Light Thunderstorms and Rain
8:55 AM 61.3 °F - 60.3 °F 96% 29.57 in 5.0 mi West 5.8 mph - 0.36 in Rain , Thunderstorm Light Thunderstorms and Rain
9:06 AM 60.8 °F - 59.0 °F 94% 29.56 in 5.0 mi West 3.5 mph - N/A Rain Light Rain
9:35 AM 60.8 °F - 59.0 °F 94% 29.56 in 10.0 mi Calm Calm - N/A   Overcast
9:55 AM 61.2 °F - 59.2 °F 93% 29.56 in 10.0 mi Calm Calm - 0.03 in   Scattered Clouds
10:55 AM 61.2 °F - 56.1 °F 83% 29.56 in 10.0 mi Calm Calm - N/A   Scattered Clouds
11:55 AM 64.6 °F - 55.0 °F 71% 29.51 in 10.0 mi Calm Calm - N/A   Scattered Clouds
12:55 PM 66.6 °F - 37.8 °F 35% 29.49 in 10.0 mi WNW 12.7 mph - N/A   Mostly Cloudy
1:55 PM 67.8 °F - 39.7 °F 36% 29.47 in 10.0 mi West 16.1 mph 21.9 mph N/A   Mostly Cloudy
2:55 PM 63.9 °F - 35.4 °F 35% 29.48 in 10.0 mi West 18.4 mph 32.2 mph N/A   Partly Cloudy
3:55 PM 61.2 °F - 34.5 °F 37% 29.49 in 10.0 mi West 26.5 mph 38.0 mph N/A   Clear
4:55 PM 59.4 °F - 34.0 °F 39% 29.52 in 10.0 mi West 12.7 mph 21.9 mph N/A   Overcast
5:55 PM 57.0 °F - 32.7 °F 40% 29.50 in 10.0 mi West 5.8 mph - N/A   Partly Cloudy
6:55 PM 54.3 °F - 32.0 °F 43% 29.53 in 10.0 mi West 3.5 mph - N/A   Partly Cloudy
7:55 PM 52.3 °F - 34.3 °F 50% 29.52 in 10.0 mi NW 3.5 mph - N/A   Mostly Cloudy
8:55 PM 52.7 °F - 30.7 °F 43% 29.55 in 10.0 mi West 13.8 mph 18.4 mph N/A   Scattered Clouds
9:41 PM 48.2 °F - 42.8 °F 82% 29.60 in 10.0 mi North 16.1 mph - N/A   Scattered Clouds
9:55 PM 46.4 °F 40.1 °F 42.3 °F 85% 29.59 in 10.0 mi North 15.0 mph - N/A   Partly Cloudy
10:55 PM 43.2 °F 34.5 °F 34.5 °F 72% 29.63 in 10.0 mi North 20.7 mph 25.3 mph N/A   Partly Cloudy
11:55 PM 41.5 °F 33.5 °F 33.6 °F 73% 29.68 in 10.0 mi North 16.1 mph - N/A   Partly Cloudy